Location: New York
(40.7140°N, 74.0060°W)
Time: 07:09:58
(UTC-04:00)

ISS - Visible Passes

Search period start: 26 May 2017 00:00
Search period end: 05 June 2017 00:00
Orbit: 402 x 408 km, 51.6° (Epoch: 26 May)

Date Brightness Start Highest point End Pass type
(mag) Time Alt. Az. Time Alt. Az. Time Alt. Az.
26 May -0.3 00:27:54 10° NNW 00:29:23 12° N 00:30:52 10° NNE visible
26 May -1.0 02:04:20 10° NNW 02:06:52 20° NNE 02:09:22 10° ENE visible
26 May -4.0 03:40:24 10° NW 03:43:41 80° SW 03:46:56 10° SE visible
26 May -1.7 21:56:45 10° W 21:59:43 30° NNW 22:02:41 10° NE visible
26 May -0.4 23:35:21 10° NW 23:37:00 13° N 23:38:40 10° NNE visible
27 May -0.7 01:12:27 10° NNW 01:14:33 16° NNE 01:16:38 10° NE visible
27 May -3.0 02:48:22 10° NW 02:53:57 17° ESE 02:54:49 10° ESE visible
27 May -2.2 04:27:43 16° SW 04:27:48 16° SW 04:29:56 10° S visible
27 May -2.7 21:04:20 10° WSW 21:07:32 49° NNW 21:10:46 10° NE visible
27 May -0.6 22:42:36 10° NW 22:44:39 15° NNW 22:46:40 10° NNE visible
28 May -0.5 00:20:29 10° NNW 00:22:11 13° N 00:23:54 10° NE visible
28 May -1.2 01:56:26 10° NW 01:57:35 18° NNW 01:57:35 18° NNW visible
28 May -0.9 21:49:51 10° WNW 21:52:18 19° NNW 21:54:45 10° NNE visible
28 May -0.5 23:28:17 10° NNW 23:29:47 12° N 23:31:17 10° NNE visible
29 May -1.1 01:04:32 10° NNW 01:06:21 20° N 01:06:21 20° N visible
29 May -1.4 20:57:10 10° W 21:00:01 26° NNW 21:02:51 10° NE visible
29 May -0.6 22:35:48 10° NNW 22:37:22 13° N 22:38:56 10° NNE visible
30 May -1.0 00:12:37 10° NNW 00:14:53 17° NNE 00:15:30 16° NNE visible
30 May -0.7 21:43:04 10° NW 21:44:57 14° N 21:46:50 10° NNE visible
30 May -0.7 23:20:39 10° NNW 23:22:30 14° N 23:24:21 10° NE visible
31 May -1.0 00:56:34 10° NW 00:57:26 16° NW 00:57:26 16° NW visible
31 May -0.9 20:50:15 10° WNW 20:52:33 17° NNW 20:54:51 10° NNE visible
31 May -0.7 22:28:31 10° NNW 22:30:04 13° N 22:31:37 10° NNE visible
01 Jun -1.5 00:04:37 10° NW 00:06:50 24° N 00:06:50 24° N visible
01 Jun -0.7 21:36:05 10° NNW 21:37:37 12° N 21:39:07 10° NNE visible
01 Jun -1.3 23:12:40 10° NNW 23:15:06 19° NNE 23:16:16 16° NE visible
02 Jun -0.7 00:48:41 10° NW 00:48:54 12° NW 00:48:54 12° NW visible
02 Jun -1.0 22:20:41 10° NNW 22:22:42 15° NNE 22:24:41 10° NE visible
02 Jun -1.7 23:56:36 10° NW 23:58:23 27° NNW 23:58:23 27° NNW visible
03 Jun -0.9 21:28:35 10° NNW 21:30:13 13° N 21:31:52 10° NE visible
03 Jun -2.2 23:04:35 10° NW 23:07:32 29° NNE 23:07:53 28° NE visible
04 Jun -1.5 22:12:37 10° NNW 22:15:11 21° NNE 22:17:26 12° ENE visible
04 Jun -1.6 23:48:41 10° WNW 23:50:04 23° WNW 23:50:04 23° WNW visible
